| time (UTC) | temp F | wind direction | speed knots | gust knots | rain 1hr in | rain 24hr in | rain mn in | humidity % | barometer mb |
| 20260906211559 | 86 | 131 | 7.8 | 12.2 | 0.00 | 0.00 | 0.00 | 27 | 1008.8 |
| 20260906210108 | 87 | 116 | 4.3 | 11.3 | 0.00 | 0.00 | 0.00 | 27 | 1009.1 |
| 20260906204550 | 87 | 152 | 4.3 | 15.6 | 0.00 | 0.00 | 0.00 | 28 | 1009.3 |
| 20260906203049 | 86 | 120 | 7.0 | 13.0 | 0.00 | 0.00 | 0.00 | 27 | 1009.4 |
| 20260906201547 | 86 | 137 | 4.3 | 11.3 | 0.00 | 0.00 | 0.00 | 28 | 1009.6 |
| 20260906200050 | 84 | 84 | 3.5 | 10.4 | 0.00 | 0.00 | 0.00 | 33 | 1009.8 |
| 20260906194604 | 84 | 123 | 5.2 | 10.4 | 0.00 | 0.00 | 0.00 | 31 | 1009.9 |
| 20260906193039 | 83 | 95 | 4.3 | 10.4 | 0.00 | 0.00 | 0.00 | 32 | 1010.1 |
| 20260906191536 | 83 | 102 | 5.2 | 11.3 | 0.00 | 0.00 | 0.00 | 33 | 1010.5 |
| 20260906190035 | 82 | 327 | 2.6 | 5.2 | 0.00 | 0.00 | 0.00 | 35 | 1010.8 |
| 20260906184534 | 81 | 90 | 4.3 | 10.4 | 0.00 | 0.00 | 0.00 | 35 | 1011.2 |
| 20260906183039 | 81 | 85 | 2.6 | 10.4 | 0.00 | 0.00 | 0.00 | 36 | 1011.4 |
| 20260906181538 | 81 | 43 | 3.5 | 9.6 | 0.00 | 0.00 | 0.00 | 36 | 1011.5 |
| 20260906180037 | 80 | 22 | 4.3 | 13.0 | 0.00 | 0.00 | 0.00 | 36 | 1011.7 |
| 20260906174534 | 79 | 40 | 5.2 | 9.6 | 0.00 | 0.00 | 0.00 | 37 | 1011.8 |
| 20260906173023 | 79 | 4 | 5.2 | 10.4 | 0.00 | 0.00 | 0.00 | 37 | 1011.9 |
| 20260906171517 | 78 | 33 | 6.1 | 11.3 | 0.00 | 0.00 | 0.00 | 38 | 1012.1 |
| 20260906170015 | 79 | 33 | 3.5 | 10.4 | 0.00 | 0.00 | 0.00 | 37 | 1012.2 |
| 20260906164518 | 77 | 28 | 1.7 | 10.4 | 0.00 | 0.00 | 0.00 | 39 | 1012.2 |
| 20260906163018 | 77 | 180 | 2.6 | 7.0 | 0.00 | 0.00 | 0.00 | 38 | 1012.4 |
| 20260906161505 | 76 | 37 | 1.7 | 6.1 | 0.00 | 0.00 | 0.00 | 40 | 1012.4 |
| 20260906160101 | 75 | 72 | 1.7 | 4.3 | 0.00 | 0.00 | 0.00 | 43 | 1012.4 |
| 20260906154603 | 75 | 83 | 1.7 | 6.1 | 0.00 | 0.00 | 0.00 | 43 | 1012.2 |
| 20260906153059 | 75 | 118 | 1.7 | 5.2 | 0.00 | 0.00 | 0.00 | 42 | 1012.2 |
| 20260906151556 | 75 | 85 | 1.7 | 6.1 | 0.00 | 0.00 | 0.00 | 43 | 1012.2 |
| 20260906144601 | 73 | 112 | 0.9 | 3.5 | 0.00 | 0.00 | 0.00 | 44 | 1012.1 |
| 20260906143046 | 72 | 107 | 1.7 | 3.5 | 0.00 | 0.00 | 0.00 | 45 | 1012.2 |
| 20260906141547 | 72 | 124 | 1.7 | 7.0 | 0.00 | 0.00 | 0.00 | 45 | 1012.3 |
| 20260906140042 | 72 | 123 | 1.7 | 7.0 | 0.00 | 0.00 | 0.00 | 45 | 1012.1 |
| 20260906134541 | 72 | 161 | 1.7 | 4.3 | 0.00 | 0.00 | 0.00 | 44 | 1011.7 |
| 20260906133033 | 71 | 218 | 0.0 | 1.7 | 0.00 | 0.00 | 0.00 | 44 | 1011.5 |
| 20260906131530 | 68 | 211 | 0.0 | 0.0 | 0.00 | 0.00 | 0.00 | 49 | 1011.3 |
| 20260906130035 | 66 | 0.0 | 0.0 | 0.00 | 0.00 | 0.00 | 48 | 1011.2 | |
| 20260906124522 | 64 | 359 | 0.0 | 2.6 | 0.00 | 0.00 | 0.00 | 50 | 1010.9 |
| 20260906123019 | 64 | 359 | 0.9 | 2.6 | 0.00 | 0.00 | 0.00 | 50 | 1010.9 |
| 20260906121519 | 64 | 359 | 0.0 | 2.6 | 0.00 | 0.00 | 0.00 | 49 | 1010.8 |
| 20260906120018 | 64 | 359 | 0.9 | 4.3 | 0.00 | 0.00 | 0.00 | 50 | 1010.8 |
| 20260906114532 | 64 | 359 | 0.9 | 3.5 | 0.00 | 0.00 | 0.00 | 50 | 1010.9 |
| 20260906113017 | 64 | 359 | 1.7 | 2.6 | 0.00 | 0.00 | 0.00 | 50 | 1010.8 |
| 20260906111516 | 64 | 359 | 0.0 | 1.7 | 0.00 | 0.00 | 0.00 | 49 | 1010.8 |
| 20260906110020 | 64 | 359 | 0.9 | 2.6 | 0.00 | 0.00 | 0.00 | 51 | 1010.8 |
| 20260906104518 | 64 | 359 | 1.7 | 3.5 | 0.00 | 0.00 | 0.00 | 50 | 1010.7 |
| 20260906103012 | 64 | 359 | 0.0 | 3.5 | 0.00 | 0.00 | 0.00 | 50 | 1010.7 |
| 20260906101511 | 63 | 359 | 0.0 | 1.7 | 0.00 | 0.00 | 0.00 | 51 | 1010.6 |
| 20260906100010 | 63 | 359 | 0.0 | 3.5 | 0.00 | 0.00 | 0.00 | 50 | 1010.5 |
| 20260906094521 | 64 | 359 | 0.0 | 2.6 | 0.00 | 0.00 | 0.00 | 50 | 1010.3 |
| 20260906093006 | 64 | 0.0 | 3.5 | 0.00 | 0.00 | 0.00 | 49 | 1010.2 | |
| 20260906091606 | 67 | 0.0 | 3.5 | 0.00 | 0.00 | 0.00 | 46 | 1010.1 | |
| 20260906090057 | 69 | 0.0 | 3.5 | 0.00 | 0.00 | 0.00 | 41 | 1010.1 | |
| 20260906084555 | 72 | 0.0 | 3.5 | 0.00 | 0.00 | 0.00 | 33 | 1009.4 | |
| 20260906083055 | 72 | 0.0 | 5.2 | 0.00 | 0.00 | 0.00 | 33 | 1009.3 | |
| 20260906081555 | 72 | 0.0 | 5.2 | 0.00 | 0.00 | 0.00 | 36 | 1009.4 | |
| 20260906080055 | 73 | 359 | 6.1 | 10.4 | 0.00 | 0.00 | 0.00 | 35 | 1009.5 |
| 20260906074554 | 73 | 359 | 0.0 | 9.6 | 0.00 | 0.00 | 0.00 | 36 | 1009.4 |
| 20260906073052 | 72 | 0.0 | 5.2 | 0.00 | 0.00 | 0.00 | 38 | 1009.2 | |
| 20260906071548 | 71 | 0.0 | 2.6 | 0.00 | 0.00 | 0.00 | 41 | 1009.2 | |
| 20260906070049 | 71 | 0.0 | 3.5 | 0.00 | 0.00 | 0.00 | 41 | 1009.1 | |
| 20260906064546 | 70 | 359 | 2.6 | 5.2 | 0.00 | 0.00 | 0.00 | 42 | 1009.2 |
| 20260906063045 | 72 | 0.0 | 3.5 | 0.00 | 0.00 | 0.00 | 40 | 1009.3 | |
| 20260906061543 | 72 | 359 | 1.7 | 7.0 | 0.00 | 0.00 | 0.00 | 40 | 1009.3 |
| 20260906060040 | 68 | 0.0 | 4.3 | 0.00 | 0.00 | 0.00 | 46 | 1009.4 | |
| 20260906054539 | 67 | 0.0 | 3.5 | 0.00 | 0.00 | 0.00 | 50 | 1009.6 | |
| 20260906053038 | 67 | 224 | 0.9 | 3.5 | 0.00 | 0.00 | 0.00 | 54 | 1009.6 |
| 20260906051538 | 67 | 222 | 0.0 | 1.7 | 0.00 | 0.00 | 0.00 | 54 | 1009.8 |
| 20260906050038 | 68 | 223 | 0.9 | 2.6 | 0.00 | 0.00 | 0.00 | 53 | 1009.9 |
| 20260906044542 | 69 | 359 | 0.0 | 3.5 | 0.00 | 0.00 | 0.00 | 50 | 1010.1 |
| 20260906043043 | 70 | 275 | 3.5 | 6.1 | 0.00 | 0.00 | 0.00 | 50 | 1010.1 |
| 20260906041538 | 70 | 256 | 1.7 | 4.3 | 0.00 | 0.00 | 0.00 | 51 | 1010.2 |
| 20260906040038 | 70 | 254 | 1.7 | 3.5 | 0.00 | 0.00 | 0.00 | 50 | 1010.3 |
| 20260906034543 | 71 | 266 | 2.6 | 9.6 | 0.00 | 0.00 | 0.00 | 47 | 1010.2 |
| 20260906033036 | 72 | 0.9 | 4.3 | 0.00 | 0.00 | 0.00 | 39 | 1009.8 | |
| 20260906031547 | 72 | 359 | 0.0 | 5.2 | 0.00 | 0.00 | 0.00 | 40 | 1009.8 |
| 20260906030034 | 71 | 0.0 | 4.3 | 0.00 | 0.00 | 0.00 | 42 | 1009.4 | |
| 20260906024534 | 71 | 359 | 0.9 | 4.3 | 0.00 | 0.00 | 0.00 | 42 | 1009.2 |
| 20260906023034 | 71 | 359 | 1.7 | 3.5 | 0.00 | 0.00 | 0.00 | 42 | 1009.2 |
| 20260906021533 | 71 | 359 | 0.0 | 4.3 | 0.00 | 0.00 | 0.00 | 42 | 1009.0 |
| 20260906020048 | 72 | 0.9 | 3.5 | 0.00 | 0.00 | 0.00 | 42 | 1008.7 | |
| 20260906014535 | 73 | 359 | 0.9 | 1.7 | 0.00 | 0.00 | 0.00 | 41 | 1008.6 |
| 20260906013033 | 74 | 138 | 0.0 | 1.7 | 0.00 | 0.00 | 0.00 | 40 | 1008.6 |
| 20260906011531 | 74 | 267 | 0.0 | 3.5 | 0.00 | 0.00 | 0.00 | 40 | 1008.5 |
| 20260906010031 | 74 | 271 | 2.6 | 3.5 | 0.00 | 0.00 | 0.00 | 40 | 1008.6 |
| 20260906004530 | 75 | 274 | 1.7 | 3.5 | 0.00 | 0.00 | 0.00 | 40 | 1008.7 |
| 20260906003031 | 76 | 266 | 0.0 | 5.2 | 0.00 | 0.00 | 0.00 | 38 | 1008.7 |
| 20260906001532 | 78 | 4 | 0.0 | 1.7 | 0.00 | 0.00 | 0.00 | 36 | 1008.8 |
| 20260906000030 | 79 | 4 | 0.9 | 4.3 | 0.00 | 0.00 | 0.00 | 34 | 1008.8 |
| 20260905234528 | 80 | 30 | 3.5 | 7.8 | 0.00 | 0.00 | 0.00 | 35 | 1008.8 |
| 20260905233032 | 80 | 345 | 4.3 | 7.8 | 0.00 | 0.00 | 0.00 | 34 | 1008.8 |
| 20260905231526 | 80 | 73 | 1.7 | 8.7 | 0.00 | 0.00 | 0.00 | 35 | 1009.0 |
| 20260905230027 | 79 | 12 | 6.1 | 12.2 | 0.00 | 0.00 | 0.00 | 37 | 1009.1 |
| 20260905224526 | 79 | 342 | 4.3 | 10.4 | 0.00 | 0.01 | 0.00 | 38 | 1009.1 |
| 20260905223035 | 80 | 307 | 2.6 | 8.7 | 0.00 | 0.01 | 0.00 | 36 | 1009.0 |
| 20260905221538 | 80 | 290 | 3.5 | 7.8 | 0.00 | 0.01 | 0.00 | 35 | 1008.9 |
| 20260905220124 | 80 | 289 | 4.3 | 7.0 | 0.00 | 0.01 | 0.00 | 37 | 1008.9 |
| 20260905214525 | 79 | 306 | 2.6 | 5.2 | 0.00 | 0.01 | 0.00 | 40 | 1009.1 |